Regional Weather Roundup
Issued by NWS

Home | Current Version | Previous Version | Graphics & Text | Print | Product List | Glossary On
Versions: 1 2 3 4 5 6 7 8 9 10 11 12 13 14 15 16 17 18 19 20 21 22 23 24 25 26 27 28 29 30 31 32 33 34 35 36 37 38 39 40 41 42 43 44 45 46 47 48 49 50
000
ASUS43 KLOT 231710
RWRIL

ILLINOIS REGIONAL WEATHER ROUNDUP
NATIONAL WEATHER SERVICE CHICAGO/ROMEOVILLE IL
1200 PM CDT WED APR 23 2014

NOTE: "FAIR" INDICATES FEW OR NO CLOUDS BELOW 12,000 FEET WITH NO
SIGNIFICANT WEATHER AND/OR OBSTRUCTIONS TO VISIBILITY.

* THESE STATIONS ARE NOT UNDER NWS QUALITY CONTROL. THEY ALSO MAY NOT
  REPORT WEATHER SUCH AS PRECIPITATION OR FOG.

ILZ001-002-007-009-015-016-024-231800-
NORTHWEST ILLINOIS

CITY           SKY/WX    TMP DP  RH WIND       PRES   REMARKS
MOLINE         PTSUNNY   50  29  44 SE8       30.16S
STERLING*      MOSUNNY   52  28  40 SE9       30.16F
SAVANNA*       PTSUNNY   50  30  45 E5        30.16F
$$

ILZ003-004-008-010-011-017-018-231800-
NORTH CENTRAL ILLINOIS

CITY           SKY/WX    TMP DP  RH WIND       PRES   REMARKS
ROCKFORD       MOSUNNY   51  25  36 VRB3      30.18F
FREEPORT*      MOSUNNY   50  26  40 SE6       30.17F
ROCHELLE*      SUNNY     50  26  39 SE7       30.17S
DE KALB*       SUNNY     48  27  43 E7        30.17S
PERU*          MOSUNNY   49  32  51 CALM      30.16F
$$

ILZ005-006-012>014-019>023-231800-
NORTHEAST ILLINOIS

CITY           SKY/WX    TMP DP  RH WIND       PRES   REMARKS
CHICAGO-OHARE  MOSUNNY   47  25  42 NE10      30.17F
CHICAGO-MIDWAY MOSUNNY   45  28  51 E6G16     30.17F
AURORA         SUNNY     50  27  40 VRB5      30.17S
LANSING*       SUNNY     45  29  54 NE7       30.18S
JOLIET*        SUNNY     48  29  47 SE5       30.18S
WAUKEGAN       SUNNY     42  25  50 N7        30.19R
DUPAGE AIRPORT SUNNY     49  26  41 NE9G17    30.16F
KANKAKEE*      SUNNY     48  31  51 N9        30.17F
WHEELING       SUNNY     46  27  47 E9        30.19F
MORRIS*        SUNNY     50  24  35 SE3       30.16F
ROMEOVILLE*    SUNNY     48  26  42 E6        30.17S
NORTHERLY ISL    N/A     42  30  62 N9          N/A
$$

LMZ740>746-231800-
SOUTHERN LAKE MICHIGAN

STATION/POSITION SKY/WX   TEMP    WIND        PRES    VSBY  WAVE
                          AIR SEA DIR/SP/G                  HT/PER
                          (F)     (DEG/KT/KT) (MB)    (MI)  (FT/S)
WAUKEGAN HARBOR            37      50/  8/  8 1023.7S
HARRISON CRIB              37     360/  8/ 10   N/A
BURNHAM HARBOR             42      30/  7/ 11   N/A
CALUMET HARBOR             40      30/  9/ 12 1022.8F
MICHIGAN CITY              38     340/ 11/ 14   N/A
$$

ILZ025>027-034>036-040-047-049-050-058-095>099-231800-
WEST-CENTRAL ILLINOIS

CITY           SKY/WX    TMP DP  RH WIND       PRES   REMARKS
QUINCY         PTSUNNY   54  32  43 E14       30.10F
GALESBURG*     PTSUNNY   53  32  44 S8        30.14S
MACOMB*        MOSUNNY   54  29  38 SE8G16    30.17S
JACKSONVILLE*  SUNNY     58  31  36 E10G17    30.13F
PITTSFIELD*    PTSUNNY   56  31  38 E10       30.12F
$$

ILZ028>032-037-038-041>044-048-051>054-059>061-231800-
CENTRAL ILLINOIS

CITY           SKY/WX    TMP DP  RH WIND       PRES   REMARKS
PONTIAC        SUNNY     54  28  37 E8        30.16F
BLOOMINGTON    MOSUNNY   52  28  39 E9        30.15F
DECATUR        SUNNY     55  31  39 MISG      30.15F
PEORIA         MOSUNNY   54  32  43 MISG      30.15F
LACON*         MOSUNNY   52  31  45 E8        30.15F
LINCOLN*       SUNNY     56  30  37 SE7       30.14F
SPRINGFIELD    SUNNY     56  31  38 SE7       30.15F
TAYLORVILLE    SUNNY     54  32  43 E9        30.13F
$$

ILZ033-039-045-046-055>057-062-063-231800-
EAST-CENTRAL ILLINOIS

CITY           SKY/WX    TMP DP  RH WIND       PRES   REMARKS
CHAMPAIGN      SUNNY     54  29  38 NE8       30.14F
RANTOUL*       SUNNY     53  27  36 CALM      30.15F
MATTOON        SUNNY     53  28  38 NE8       30.13F
PARIS*         SUNNY     53  31  42 N6        30.15F
$$

ILZ079-100>102-231800-
SOUTHWEST ILLINOIS

CITY           SKY/WX    TMP DP  RH WIND       PRES   REMARKS
ALTON          MOSUNNY   57  32  38 SE10      30.12F
BELLEVILLE     SUNNY     59  39  48 E6        30.11F
CAHOKIA*       SUNNY     61  39  44 SE10      30.10F
SPARTA*        SUNNY     57  37  47 SE8       30.12F
$$

ILZ064>066-069>071-074>076-080>082-084>086-088>090-092>094-231800-
SOUTH-CENTRAL ILLINOIS

CITY           SKY/WX    TMP DP  RH WIND       PRES   REMARKS
CARBONDALE     SUNNY     60  39  45 CALM      30.12S
CAIRO*         SUNNY     66  37  34 NE8       30.09F
MARION         MOSUNNY   59  36  41 E9        30.12F
MT. VERNON     MOSUNNY   57  34  41 CALM      30.13F
CENTRALIA*       N/A     57  32  38 CALM      30.12F
SALEM*         SUNNY     59  37  44 NE8       30.12F
METROPOLIS*    SUNNY     63  33  32 NE12      30.09F
$$

ILZ067-068-072-073-078-083-087-091-231800-
SOUTHEAST ILLINOIS

CITY           SKY/WX    TMP DP  RH WIND       PRES   REMARKS
FLORA*         SUNNY     54  32  43 NE9       30.14S
FAIRFIELD*     MOSUNNY   57  36  44 NE5       30.13S
HARRISBURG*    SUNNY     59  34  39 NE8       30.12F
ROBINSON*      SUNNY     56  32  38 N3        30.15S
CARMI*         MOSUNNY   58  36  43 NE8       30.12F
$$

ABBREVIATIONS USED IN REMARKS
   TC - TEMPERATURE IN CELSIUS
  WCI - WIND CHILL INDEX
   HX - HEAT INDEX
  VSB - VISIBILITY
$$




USA.gov is the U.S. government's official web portal to all federal, state and local government web resources and services.